Time,TemperatureF,DewpointF,PressureIn,WindDirection,WindDirectionDegrees,WindSpeedMPH,WindSpeedGustMPH,Humidity,HourlyPrecipIn,Conditions,Clouds,dailyrainin,SoftwareType,DateUTC
2013-07-07 00:22:00,83.0,56.0,29.57,NNE,19,0.0,3.0,40,0.00,,,0.00,,2013-07-07 06:22:00,
2013-07-07 00:32:00,83.0,56.0,29.57,NNE,19,0.0,3.0,40,0.00,,,0.00,,2013-07-07 06:32:00,
2013-07-07 00:43:00,81.0,54.0,29.57,ESE,110,0.0,1.0,40,0.00,,,0.00,,2013-07-07 06:43:00,
2013-07-07 00:52:00,82.0,54.0,29.58,North,8,0.0,4.0,38,0.00,,,0.00,,2013-07-07 06:52:00,
2013-07-07 01:02:00,82.0,54.0,29.58,North,8,0.0,4.0,38,0.00,,,0.00,,2013-07-07 07:02:00,
2013-07-07 01:11:00,82.0,55.0,29.60,NE,48,0.0,1.0,39,0.00,,,0.00,,2013-07-07 07:11:00,
2013-07-07 01:22:00,81.0,54.0,29.59,NE,49,0.0,0.0,40,0.00,,,0.00,,2013-07-07 07:22:00,
2013-07-07 01:33:00,81.0,54.0,29.59,NE,49,0.0,0.0,40,0.00,,,0.00,,2013-07-07 07:33:00,
2013-07-07 01:44:00,80.0,55.0,29.59,NE,48,0.0,1.0,43,0.00,,,0.00,,2013-07-07 07:44:00,
2013-07-07 01:53:00,79.0,56.0,29.60,NE,48,0.0,0.0,46,0.00,,,0.00,,2013-07-07 07:53:00,
2013-07-07 02:02:00,79.0,56.0,29.60,NE,48,0.0,0.0,46,0.00,,,0.00,,2013-07-07 08:02:00,
2013-07-07 02:12:00,78.0,56.0,29.59,NE,49,0.0,0.0,47,0.00,,,0.00,,2013-07-07 08:12:00,
2013-07-07 02:22:00,78.0,57.0,29.60,NE,48,0.0,0.0,48,0.00,,,0.00,,2013-07-07 08:22:00,
2013-07-07 02:34:00,78.0,57.0,29.60,NE,48,0.0,0.0,48,0.00,,,0.00,,2013-07-07 08:34:00,
2013-07-07 02:44:00,81.0,55.0,29.61,NE,34,1.0,9.0,41,0.00,,,0.00,,2013-07-07 08:44:00,
2013-07-07 02:53:00,81.0,56.0,29.62,East,88,0.0,5.0,43,0.00,,,0.00,,2013-07-07 08:53:00,
2013-07-07 03:02:00,81.0,56.0,29.62,East,88,0.0,5.0,43,0.00,,,0.00,,2013-07-07 09:02:00,
2013-07-07 03:12:00,81.0,56.0,29.61,NNE,33,0.0,3.0,42,0.00,,,0.00,,2013-07-07 09:12:00,
2013-07-07 03:22:00,81.0,57.0,29.62,North,353,3.0,7.0,44,0.00,,,0.00,,2013-07-07 09:22:00,
2013-07-07 03:34:00,81.0,57.0,29.62,North,353,3.0,7.0,44,0.00,,,0.00,,2013-07-07 09:34:00,
2013-07-07 03:43:00,80.0,58.0,29.61,NE,46,2.0,6.0,47,0.00,,,0.00,,2013-07-07 09:43:00,
2013-07-07 03:53:00,79.0,58.0,29.60,NNE,25,1.0,8.0,49,0.00,,,0.00,,2013-07-07 09:53:00,
2013-07-07 04:03:00,79.0,58.0,29.60,NNE,25,1.0,8.0,49,0.00,,,0.00,,2013-07-07 10:03:00,
2013-07-07 04:12:00,78.0,58.0,29.60,NNE,16,0.0,3.0,51,0.00,,,0.00,,2013-07-07 10:12:00,
2013-07-07 04:22:00,77.0,58.0,29.60,NNW,335,0.0,2.0,52,0.00,,,0.00,,2013-07-07 10:22:00,
2013-07-07 04:32:00,77.0,58.0,29.60,NNW,335,0.0,2.0,52,0.00,,,0.00,,2013-07-07 10:32:00,
2013-07-07 04:43:00,77.0,58.0,29.59,North,9,0.0,3.0,52,0.00,,,0.00,,2013-07-07 10:43:00,
2013-07-07 04:52:00,77.0,57.0,29.59,North,352,0.0,1.0,50,0.00,,,0.00,,2013-07-07 10:52:00,
2013-07-07 05:02:00,77.0,57.0,29.59,North,352,0.0,1.0,50,0.00,,,0.00,,2013-07-07 11:02:00,
2013-07-07 05:11:00,77.0,57.0,29.59,NW,314,0.0,2.0,50,0.00,,,0.00,,2013-07-07 11:11:00,
2013-07-07 05:23:00,77.0,56.0,29.59,ENE,78,0.0,2.0,49,0.00,,,0.00,,2013-07-07 11:23:00,
2013-07-07 05:34:00,77.0,56.0,29.59,ENE,78,0.0,2.0,49,0.00,,,0.00,,2013-07-07 11:34:00,
2013-07-07 05:43:00,77.0,55.0,29.59,NW,319,0.0,2.0,47,0.00,,,0.00,,2013-07-07 11:43:00,
2013-07-07 05:53:00,77.0,56.0,29.60,NNE,12,0.0,3.0,49,0.00,,,0.00,,2013-07-07 11:53:00,
2013-07-07 06:02:00,77.0,56.0,29.60,NNE,12,0.0,3.0,49,0.00,,,0.00,,2013-07-07 12:02:00,
2013-07-07 06:12:00,77.0,59.0,29.61,NNW,330,1.0,4.0,53,0.00,,,0.00,,2013-07-07 12:12:00,
2013-07-07 06:22:00,77.0,59.0,29.61,NNE,12,1.0,7.0,54,0.00,,,0.00,,2013-07-07 12:22:00,
2013-07-07 06:34:00,77.0,59.0,29.61,NNE,12,1.0,7.0,54,0.00,,,0.00,,2013-07-07 12:34:00,
2013-07-07 06:43:00,76.0,59.0,29.62,NNW,336,1.0,6.0,55,0.00,,,0.00,,2013-07-07 12:43:00,
2013-07-07 06:52:00,76.0,58.0,29.63,NNE,16,2.0,7.0,54,0.00,,,0.00,,2013-07-07 12:52:00,
2013-07-07 07:02:00,76.0,58.0,29.63,NNE,16,2.0,7.0,54,0.00,,,0.00,,2013-07-07 13:02:00,
2013-07-07 07:11:00,76.0,58.0,29.63,North,8,3.0,8.0,53,0.00,,,0.00,,2013-07-07 13:11:00,
2013-07-07 07:22:00,76.0,58.0,29.64,NNE,18,1.0,6.0,54,0.00,,,0.00,,2013-07-07 13:22:00,
2013-07-07 07:34:00,76.0,58.0,29.64,NNE,18,1.0,6.0,54,0.00,,,0.00,,2013-07-07 13:34:00,
2013-07-07 07:43:00,76.0,58.0,29.64,North,358,3.0,9.0,53,0.00,,,0.00,,2013-07-07 13:43:00,
2013-07-07 07:52:00,76.0,58.0,29.64,North,351,1.0,7.0,54,0.00,,,0.00,,2013-07-07 13:52:00,
2013-07-07 08:02:00,76.0,58.0,29.64,North,351,1.0,7.0,54,0.00,,,0.00,,2013-07-07 14:02:00,
2013-07-07 08:12:00,76.0,59.0,29.65,NE,51,2.0,7.0,55,0.00,,,0.00,,2013-07-07 14:12:00,
2013-07-07 08:22:00,76.0,60.0,29.65,NNW,343,2.0,6.0,57,0.00,,,0.00,,2013-07-07 14:22:00,
2013-07-07 08:34:00,76.0,60.0,29.65,NNW,343,2.0,6.0,57,0.00,,,0.00,,2013-07-07 14:34:00,
2013-07-07 08:43:00,76.0,59.0,29.66,NNW,330,2.0,5.0,55,0.00,,,0.00,,2013-07-07 14:43:00,
2013-07-07 08:53:00,77.0,60.0,29.66,NNW,330,1.0,6.0,56,0.00,,,0.00,,2013-07-07 14:53:00,
2013-07-07 09:02:00,77.0,60.0,29.66,NNW,330,1.0,6.0,56,0.00,,,0.00,,2013-07-07 15:02:00,
2013-07-07 09:11:00,78.0,59.0,29.67,East,97,2.0,7.0,53,0.00,,,0.00,,2013-07-07 15:11:00,
2013-07-07 09:22:00,80.0,60.0,29.67,North,3,1.0,8.0,51,0.00,,,0.00,,2013-07-07 15:22:00,
2013-07-07 09:34:00,80.0,60.0,29.67,North,3,1.0,8.0,51,0.00,,,0.00,,2013-07-07 15:34:00,
2013-07-07 09:43:00,82.0,61.0,29.67,ENE,67,0.0,7.0,49,0.00,,,0.00,,2013-07-07 15:43:00,
2013-07-07 09:52:00,82.0,60.0,29.66,North,1,1.0,6.0,47,0.00,,,0.00,,2013-07-07 15:52:00,
2013-07-07 10:01:00,82.0,60.0,29.66,North,1,1.0,6.0,47,0.00,,,0.00,,2013-07-07 16:01:00,
2013-07-07 10:11:00,83.0,60.0,29.66,NE,51,0.0,4.0,46,0.00,,,0.00,,2013-07-07 16:11:00,
2013-07-07 10:22:00,85.0,59.0,29.66,NE,50,1.0,3.0,42,0.00,,,0.00,,2013-07-07 16:22:00,
2013-07-07 10:43:00,84.0,61.0,29.66,North,4,0.0,2.0,46,0.00,,,0.00,,2013-07-07 16:43:00,
2013-07-07 10:53:00,85.0,58.0,29.67,West,271,0.0,1.0,40,0.00,,,0.00,,2013-07-07 16:53:00,
2013-07-07 11:02:00,85.0,58.0,29.67,West,271,0.0,1.0,40,0.00,,,0.00,,2013-07-07 17:02:00,
2013-07-07 11:12:00,85.0,58.0,29.67,West,271,0.0,1.0,40,0.00,,,0.00,,2013-07-07 17:12:00,
2013-07-07 11:22:00,85.0,58.0,29.67,West,271,0.0,1.0,40,0.00,,,0.00,,2013-07-07 17:22:00,
2013-07-07 11:34:00,85.0,58.0,29.67,West,271,0.0,1.0,40,0.00,,,0.00,,2013-07-07 17:34:00,
2013-07-07 13:01:00,96.0,56.0,29.63,ESE,107,0.0,2.0,26,0.00,,,0.00,,2013-07-07 19:01:00,
2013-07-07 13:11:00,97.0,57.0,29.63,East,98,0.0,1.0,27,0.00,,,0.00,,2013-07-07 19:11:00,
2013-07-07 13:22:00,97.0,54.0,29.62,East,96,0.0,2.0,24,0.00,,,0.00,,2013-07-07 19:22:00,
2013-07-07 13:33:00,97.0,54.0,29.62,East,96,0.0,2.0,24,0.00,,,0.00,,2013-07-07 19:33:00,
2013-07-07 13:43:00,98.0,54.0,29.62,South,184,0.0,4.0,23,0.00,,,0.00,,2013-07-07 19:43:00,
2013-07-07 13:54:00,96.0,60.0,29.62,WNW,298,0.0,3.0,31,0.00,,,0.00,,2013-07-07 19:54:00,
2013-07-07 14:02:00,96.0,60.0,29.62,WNW,298,0.0,3.0,31,0.00,,,0.00,,2013-07-07 20:02:00,
2013-07-07 14:11:00,97.0,56.0,29.61,NE,51,0.0,1.0,26,0.00,,,0.00,,2013-07-07 20:11:00,
2013-07-07 14:22:00,97.0,56.0,29.60,West,266,0.0,3.0,26,0.00,,,0.00,,2013-07-07 20:22:00,
2013-07-07 14:34:00,97.0,56.0,29.60,West,266,0.0,3.0,26,0.00,,,0.00,,2013-07-07 20:34:00,
2013-07-07 14:42:00,99.0,57.0,29.60,WSW,245,0.0,1.0,25,0.00,,,0.00,,2013-07-07 20:42:00,
2013-07-07 14:53:00,99.0,57.0,29.59,SW,229,0.0,1.0,25,0.00,,,0.00,,2013-07-07 20:53:00,
2013-07-07 15:02:00,99.0,57.0,29.59,SW,229,0.0,1.0,25,0.00,,,0.00,,2013-07-07 21:02:00,
2013-07-07 15:11:00,99.0,51.0,29.59,West,273,0.0,1.0,20,0.00,,,0.00,,2013-07-07 21:11:00,
2013-07-07 15:22:00,102.0,55.0,29.58,NNE,23,0.0,1.0,21,0.00,,,0.00,,2013-07-07 21:22:00,
2013-07-07 15:33:00,102.0,55.0,29.58,NNE,23,0.0,1.0,21,0.00,,,0.00,,2013-07-07 21:33:00,
2013-07-07 15:43:00,101.0,54.0,29.57,SE,139,0.0,4.0,21,0.00,,,0.00,,2013-07-07 21:43:00,
2013-07-07 15:53:00,100.0,54.0,29.56,East,95,0.0,3.0,22,0.00,,,0.00,,2013-07-07 21:53:00,
2013-07-07 16:01:00,100.0,54.0,29.56,East,95,0.0,3.0,22,0.00,,,0.00,,2013-07-07 22:01:00,
2013-07-07 16:11:00,100.0,55.0,29.55,NW,321,0.0,4.0,23,0.00,,,0.00,,2013-07-07 22:11:00,
2013-07-07 16:22:00,101.0,54.0,29.54,NNE,19,0.0,2.0,21,0.00,,,0.00,,2013-07-07 22:22:00,
2013-07-07 16:34:00,101.0,54.0,29.54,NNE,19,0.0,2.0,21,0.00,,,0.00,,2013-07-07 22:34:00,
2013-07-07 16:43:00,101.0,57.0,29.54,West,281,0.0,5.0,24,0.00,,,0.00,,2013-07-07 22:43:00,
2013-07-07 16:53:00,100.0,58.0,29.54,WSW,255,0.0,3.0,25,0.00,,,0.00,,2013-07-07 22:53:00,
2013-07-07 17:02:00,100.0,58.0,29.54,WSW,255,0.0,3.0,25,0.00,,,0.00,,2013-07-07 23:02:00,
2013-07-07 17:12:00,102.0,57.0,29.53,East,98,0.0,4.0,23,0.00,,,0.00,,2013-07-07 23:12:00,
2013-07-07 17:22:00,102.0,58.0,29.54,NE,49,0.0,2.0,24,0.00,,,0.00,,2013-07-07 23:22:00,
2013-07-07 17:33:00,102.0,58.0,29.54,NE,49,0.0,2.0,24,0.00,,,0.00,,2013-07-07 23:33:00,
2013-07-07 17:43:00,97.0,54.0,29.54,SW,224,1.0,8.0,24,0.00,,,0.00,,2013-07-07 23:43:00,
2013-07-07 17:52:00,94.0,56.0,29.53,ENE,68,0.0,4.0,28,0.00,,,0.00,,2013-07-07 23:52:00,
2013-07-07 18:01:00,94.0,56.0,29.53,ENE,68,0.0,4.0,28,0.00,,,0.00,,2013-07-08 00:01:00,
2013-07-07 18:11:00,93.0,58.0,29.53,NNE,26,0.0,2.0,31,0.00,,,0.00,,2013-07-08 00:11:00,
2013-07-07 18:22:00,92.0,60.0,29.53,NNE,26,0.0,0.0,34,0.00,,,0.00,,2013-07-08 00:22:00,
2013-07-07 18:33:00,92.0,60.0,29.53,NNE,26,0.0,0.0,34,0.00,,,0.00,,2013-07-08 00:33:00,
2013-07-07 18:43:00,91.0,56.0,29.54,SE,130,0.0,2.0,31,0.00,,,0.00,,2013-07-08 00:43:00,
2013-07-07 18:53:00,91.0,55.0,29.55,ENE,57,1.0,3.0,30,0.00,,,0.00,,2013-07-08 00:53:00,
2013-07-07 19:01:00,91.0,55.0,29.55,ENE,57,1.0,3.0,30,0.00,,,0.00,,2013-07-08 01:01:00,
2013-07-07 19:11:00,91.0,55.0,29.56,NNE,28,0.0,8.0,30,0.00,,,0.00,,2013-07-08 01:11:00,
2013-07-07 19:22:00,90.0,56.0,29.57,ENE,62,1.0,12.0,32,0.00,,,0.00,,2013-07-08 01:22:00,
2013-07-07 19:32:00,90.0,56.0,29.57,ENE,62,1.0,12.0,32,0.00,,,0.00,,2013-07-08 01:32:00,
2013-07-07 19:43:00,89.0,54.0,29.57,NNE,20,0.0,3.0,31,0.00,,,0.00,,2013-07-08 01:43:00,
2013-07-07 19:52:00,90.0,52.0,29.57,ENE,64,0.0,6.0,28,0.00,,,0.00,,2013-07-08 01:52:00,
2013-07-07 20:02:00,90.0,52.0,29.57,ENE,64,0.0,6.0,28,0.00,,,0.00,,2013-07-08 02:02:00,
2013-07-07 20:11:00,89.0,53.0,29.57,North,9,0.0,1.0,29,0.00,,,0.00,,2013-07-08 02:11:00,
2013-07-07 20:22:00,88.0,54.0,29.57,North,351,0.0,1.0,32,0.00,,,0.00,,2013-07-08 02:22:00,
2013-07-07 20:33:00,88.0,54.0,29.57,North,351,0.0,1.0,32,0.00,,,0.00,,2013-07-08 02:33:00,
2013-07-07 20:42:00,86.0,56.0,29.59,North,352,0.0,0.0,36,0.00,,,0.00,,2013-07-08 02:42:00,
2013-07-07 20:52:00,84.0,56.0,29.59,NNW,346,0.0,0.0,39,0.00,,,0.00,,2013-07-08 02:52:00,
2013-07-07 21:01:00,84.0,56.0,29.59,NNW,346,0.0,0.0,39,0.00,,,0.00,,2013-07-08 03:01:00,
2013-07-07 21:12:00,83.0,57.0,29.60,SW,231,0.0,1.0,41,0.00,,,0.00,,2013-07-08 03:12:00,
2013-07-07 21:23:00,83.0,57.0,29.60,SW,231,0.0,0.0,41,0.00,,,0.00,,2013-07-08 03:23:00,
2013-07-07 21:34:00,83.0,57.0,29.60,SW,231,0.0,0.0,41,0.00,,,0.00,,2013-07-08 03:34:00,
2013-07-07 21:42:00,82.0,58.0,29.61,NW,306,0.0,0.0,44,0.00,,,0.00,,2013-07-08 03:42:00,
2013-07-07 21:52:00,82.0,57.0,29.62,NNE,18,0.0,1.0,43,0.00,,,0.00,,2013-07-08 03:52:00,
2013-07-07 22:01:00,82.0,57.0,29.62,NNE,18,0.0,1.0,43,0.00,,,0.00,,2013-07-08 04:01:00,
2013-07-07 22:12:00,82.0,59.0,29.63,SW,233,0.0,1.0,45,0.00,,,0.00,,2013-07-08 04:12:00,
2013-07-07 22:22:00,82.0,59.0,29.63,SW,233,0.0,1.0,45,0.00,,,0.00,,2013-07-08 04:22:00,
2013-07-07 22:33:00,82.0,58.0,29.63,WSW,245,0.0,1.0,44,0.00,,,0.00,,2013-07-08 04:33:00,
2013-07-07 22:42:00,87.0,49.0,29.64,South,175,2.0,5.0,27,0.00,,,0.00,,2013-07-08 04:42:00,
2013-07-07 22:53:00,88.0,49.0,29.64,SW,221,1.0,7.0,26,0.00,,,0.00,,2013-07-08 04:53:00,
2013-07-07 23:01:00,88.0,49.0,29.64,SW,221,1.0,7.0,26,0.00,,,0.00,,2013-07-08 05:01:00,
2013-07-07 23:11:00,87.0,49.0,29.65,SE,130,0.0,3.0,27,0.00,,,0.00,,2013-07-08 05:11:00,
2013-07-07 23:22:00,86.0,49.0,29.66,South,169,0.0,6.0,28,0.00,,,0.00,,2013-07-08 05:22:00,
2013-07-07 23:33:00,86.0,49.0,29.66,South,169,0.0,6.0,28,0.00,,,0.00,,2013-07-08 05:33:00,
2013-07-07 23:43:00,86.0,50.0,29.66,WSW,246,0.0,3.0,29,0.00,,,0.00,,2013-07-08 05:43:00,
2013-07-07 23:53:00,86.0,50.0,29.66,WSW,246,0.0,3.0,29,0.00,,,0.00,,2013-07-08 05:53:00,